Weather History for Saranac Lake, NY

Change the Weather History Date:

Monday, June 9, 2014

  Actual Average Record
Temperature  
Mean Temperature 67 °F 58 °F  
Max Temperature 78 °F 71 °F 87 °F (2005)
Min Temperature 56 °F 46 °F 27 °F (1983)
Cooling Degree Days 2 1  
Month to date cooling degree days 8 8  
Year to date cooling degree days 9 11  
Since 1 June cooling degree days 8 8  
Growing Degree Days 16 (Base 50)    
Moisture  
Dew Point 53 °F    
Average Humidity 64    
Maximum Humidity 86    
Minimum Humidity 41    
Precipitation  
Precipitation 0.00 in 0.14 in 1.57 in (2004)
Month to date precipitation 0.29 1.16  
Year to date precipitation 12.45 13.51  
Sea Level Pressure  
Sea Level Pressure 29.95 in    
Wind  
Wind Speed 5 mph (ENE)    
Max Wind Speed 16 mph    
Max Gust Speed 24 mph    
Visibility 10 miles    
Events      
T = Trace of Precipitation, MM = Missing Value Source: NWS Daily Summary

Daily Weather History Graph

Daily Weather History Graph

Search for Another Location

Airport:

Trip Planner

Search our weather history database for the weather conditions in past years. The results will help you decide how hot, cold, wet, or windy it might be!

Date:

Astronomy

Jun. 09, 2014 Rise Set
Actual Time 5:12 AM EDT 8:39 PM EDT
Civil Twilight 4:36 AM EDT 9:16 PM EDT
Nautical Twilight 3:48 AM EDT 10:04 PM EDT
Astronomical Twilight 2:47 AM EDT 11:05 PM EDT
Moon 4:50 PM EDT (6/9) 2:47 AM EDT (6/9)
Length of Visible Light 16h 40m
Length of Day
15h 27m
Waxing Gibbous, 85% of the Moon is Illuminated
Jun 9
Waxing Gibbous
Jun 13
Full
Jun 19
Last Quarter
Jun 27
New
Jul 5
First Quarter

Hourly Weather History & Observations

Time (EDT) Temp. Dew Point Humidity Pressure Visibility Wind Dir Wind Speed Gust Speed Precip Events Conditions
12:51 AM 59.0 °F 52.0 °F 78% 29.90 in 10.0 mi Calm Calm - N/A   Scattered Clouds
1:51 AM 61.0 °F 53.1 °F 75% 29.90 in 10.0 mi SSE 5.8 mph - N/A   Mostly Cloudy
2:51 AM 60.1 °F 52.0 °F 75% 29.89 in 10.0 mi SW 3.5 mph - N/A   Overcast
3:51 AM 57.9 °F 52.0 °F 81% 29.90 in 10.0 mi Calm Calm - N/A   Overcast
4:51 AM 57.0 °F 53.1 °F 87% 29.91 in 10.0 mi Calm Calm - N/A   Overcast
5:51 AM 57.0 °F 53.1 °F 87% 29.93 in 10.0 mi SW 3.5 mph - N/A   Overcast
6:51 AM 59.0 °F 54.0 °F 83% 29.96 in 10.0 mi Calm Calm - N/A   Overcast
7:51 AM 63.0 °F 54.0 °F 72% 29.97 in 10.0 mi Calm Calm - N/A   Overcast
8:51 AM 66.0 °F 53.1 °F 63% 29.97 in 10.0 mi East 3.5 mph - N/A   Mostly Cloudy
9:51 AM 70.0 °F 52.0 °F 53% 29.97 in 10.0 mi ENE 5.8 mph - N/A   Mostly Cloudy
10:51 AM 72.0 °F 52.0 °F 49% 29.97 in 10.0 mi Variable 5.8 mph - N/A   Overcast
11:51 AM 73.9 °F 52.0 °F 46% 29.96 in 10.0 mi ENE 9.2 mph - N/A   Clear
12:51 PM 75.9 °F 52.0 °F 43% 29.96 in 10.0 mi North - - N/A   Partly Cloudy
1:51 PM 75.9 °F 50.0 °F 40% 29.95 in 10.0 mi NNE 5.8 mph - N/A   Overcast
4:51 PM 73.9 °F 54.0 °F 50% 29.94 in 10.0 mi ENE 10.4 mph - N/A   Mostly Cloudy
5:51 PM 75.0 °F 53.1 °F 46% 29.94 in 10.0 mi NE 12.7 mph 21.9 mph N/A   Partly Cloudy
6:51 PM 73.9 °F 53.1 °F 48% 29.94 in 10.0 mi ENE 8.1 mph - N/A   Clear
7:51 PM 71.1 °F 55.0 °F 57% 29.95 in 10.0 mi ENE 9.2 mph - N/A   Mostly Cloudy
8:51 PM 66.0 °F 54.0 °F 65% 29.96 in 10.0 mi NE 3.5 mph - N/A   Mostly Cloudy
9:51 PM 62.1 °F 55.0 °F 78% 29.97 in 10.0 mi Calm Calm - N/A   Overcast
10:51 PM 61.0 °F 55.9 °F 83% 29.98 in 10.0 mi Calm Calm - N/A   Overcast
11:51 PM 61.0 °F 55.0 °F 81% 29.98 in 10.0 mi Calm Calm - N/A   Overcast